| time (UTC) | temp C | wind direction | speed KPH | gust KPH | rain 1hr cm | rain 24hr cm | rain mn cm | humidity % | barometer mb |
| 20260507070504 | 15 | 319 | 1.6 | 1.6 | 0.00 | 0.00 | 0.00 | 84 | 1015.2 |
| 20260507070009 | 15 | 315 | 1.6 | 3.2 | 0.00 | 0.00 | 0.00 | 84 | 1015.2 |
| 20260507060503 | 16 | 357 | 1.6 | 4.8 | 0.00 | 0.00 | 0.00 | 80 | 1015.1 |
| 20260507060003 | 16 | 17 | 1.6 | 8.0 | 0.00 | 0.00 | 0.00 | 80 | 1015.0 |
| 20260507050503 | 17 | 21 | 1.6 | 4.8 | 0.00 | 0.00 | 0.00 | 79 | 1015.0 |
| 20260507050005 | 17 | 0 | 0.0 | 8.0 | 0.00 | 0.00 | 0.00 | 78 | 1015.0 |
| 20260507040503 | 19 | 152 | 0.0 | 3.2 | 0.00 | 0.00 | 0.00 | 75 | 1014.0 |
| 20260507030504 | 21 | 82 | 3.2 | 8.0 | 0.00 | 0.00 | 0.00 | 67 | 1013.4 |
| 20260507030003 | 21 | 15 | 1.6 | 11.3 | 0.00 | 0.00 | 0.00 | 66 | 1013.2 |
| 20260507020504 | 24 | 12 | 3.2 | 9.7 | 0.00 | 0.00 | 0.00 | 56 | 1012.7 |
| 20260507020004 | 25 | 79 | 3.2 | 12.9 | 0.00 | 0.00 | 0.00 | 56 | 1012.7 |
| 20260507010504 | 26 | 252 | 4.8 | 9.7 | 0.00 | 0.00 | 0.00 | 52 | 1012.6 |
| 20260507010004 | 26 | 247 | 4.8 | 14.5 | 0.00 | 0.00 | 0.00 | 51 | 1012.6 |
| 20260507000504 | 26 | 244 | 3.2 | 11.3 | 0.00 | 0.00 | 0.00 | 52 | 1012.4 |
| 20260507000005 | 26 | 269 | 3.2 | 12.9 | 0.00 | 0.00 | 0.00 | 52 | 1012.5 |
| 20260506230503 | 26 | 243 | 4.8 | 14.5 | 0.00 | 0.00 | 0.00 | 49 | 1012.8 |
| 20260506230004 | 26 | 240 | 4.8 | 19.3 | 0.00 | 0.00 | 0.00 | 51 | 1012.9 |
| 20260506220503 | 26 | 207 | 6.4 | 16.1 | 0.00 | 0.00 | 0.00 | 57 | 1013.6 |
| 20260506210004 | 25 | 257 | 6.4 | 16.1 | 0.00 | 0.00 | 0.00 | 56 | 1014.3 |
| 20260506200504 | 23 | 259 | 8.0 | 12.9 | 0.00 | 0.00 | 0.00 | 66 | 1014.9 |
| 20260506200004 | 23 | 205 | 4.8 | 14.5 | 0.00 | 0.00 | 0.00 | 63 | 1015.0 |
| 20260506190502 | 22 | 261 | 4.8 | 11.3 | 0.00 | 0.00 | 0.00 | 65 | 1015.4 |
| 20260506190004 | 21 | 220 | 4.8 | 14.5 | 0.00 | 0.00 | 0.00 | 65 | 1015.4 |
| 20260506180503 | 20 | 245 | 4.8 | 11.3 | 0.00 | 0.00 | 0.00 | 70 | 1015.7 |
| 20260506170502 | 18 | 268 | 3.2 | 9.7 | 0.00 | 0.00 | 0.00 | 76 | 1016.0 |
| 20260506170003 | 18 | 221 | 4.8 | 11.3 | 0.00 | 0.00 | 0.00 | 76 | 1015.9 |
| 20260506160502 | 16 | 354 | 1.6 | 4.8 | 0.00 | 0.00 | 0.00 | 81 | 1016.1 |
| 20260506160003 | 16 | 314 | 1.6 | 4.8 | 0.00 | 0.00 | 0.00 | 82 | 1016.2 |
| 20260506150503 | 14 | 7 | 1.6 | 4.8 | 0.00 | 0.00 | 0.00 | 86 | 1016.4 |
| 20260506140503 | 13 | 305 | 1.6 | 3.2 | 0.00 | 0.00 | 0.00 | 87 | 1016.2 |
| 20260506130503 | 13 | 328 | 1.6 | 1.6 | 0.00 | 0.00 | 0.00 | 87 | 1015.5 |
| 20260506130003 | 13 | 325 | 1.6 | 3.2 | 0.00 | 0.00 | 0.00 | 87 | 1015.5 |
| 20260506120502 | 13 | 347 | 0.0 | 3.2 | 0.00 | 0.00 | 0.00 | 87 | 1015.3 |
| 20260506110003 | 13 | 325 | 1.6 | 3.2 | 0.00 | 0.00 | 0.00 | 87 | 1015.1 |
| 20260506100502 | 12 | 303 | 1.6 | 3.2 | 0.00 | 0.00 | 0.00 | 87 | 1015.1 |
| 20260506100003 | 12 | 304 | 1.6 | 3.2 | 0.00 | 0.00 | 0.00 | 87 | 1015.1 |
| 20260506090502 | 13 | 327 | 0.0 | 3.2 | 0.00 | 0.00 | 0.00 | 87 | 1015.0 |
| 20260506080503 | 13 | 315 | 3.2 | 3.2 | 0.00 | 0.00 | 0.00 | 86 | 1014.8 |